IRNSS-1B

Last updated on Fri Dec 19 2025 00:02:51 GMT+0000 (Coordinated Universal Time)

1 39635U 14017A 25351.78019707 .00000147 00000+0 00000+0 0 9994 2 39635 29.2563 243.5188 0018877 247.8275 291.5675 1.00270156 42971
UTC large
Height (km)
Speed (km/s)
/
Latitude / Longitude
Inclination (degrees)
Orbital Period (minutes)
Azimuth
Elevation
Range (km)
Doppler Factor

Next 0 passes for location: London (51.5072 / 0.1276)

Sorry there are no passes over London.